Location: �clusier
(49.9361°N, 2.7869°E)
Time: 05:01:58
(UTC+00:00)

Cosmos 2016 Rocket - Pass Details

Date: 23 October 2021
Orbit: 947 x 1000 km, 83.0° (Epoch: 05 December)

Event Time Altitude Azimuth Distance (km) Brightness Sun altitude
Exits shadow 20:44:22 28° 346° (NNW) 1,718 5.5 -38.5°
Drops below altitude 10° 20:47:20 10° 1° (N) 2,695 6.6 -38.9°
Sets 20:49:55 0° 7° (N) 3,639 7.3 -39.2°
